Hourly Weather Roundup
Issued by NWS Central Illinois

Home | Current Version | Previous Version | Text Only | Print | Product List | Glossary On
Versions: 1 2 3 4 5 6 7 8 9 10 11 12 13 14 15 16 17 18 19 20 21 22 23 24 25 26 27 28 29 30 31 32 33 34 35 36 37 38 39 40 41 42 43 44 45 46 47 48 49 50
000
NZUS43 KILX 191810
HWRILX

AREA WEATHER ROUNDUP
NATIONAL WEATHER SERVICE, LINCOLN IL
100 PM CDT SAT APR 19 2014


CITY           SKY/WX    TMP DP  RH WIND       PRES   REMARKS
BLOOMINGTON    SUNNY     67  32  27 SE10G17   30.30F
CHAMPAIGN      SUNNY     69  33  26 SE8       30.29F
6HR MIN TEMP:  39; 6HR MAX TEMP:  69;

DANVILLE       SUNNY     65  35  33 SE6       30.27F
6HR MIN TEMP:  37; 6HR MAX TEMP:  67;

DECATUR        SUNNY     69  33  26 SE5       30.28F
6HR MIN TEMP:  37; 6HR MAX TEMP:  70;

FLORA          NOT AVBL
GALESBURG      SUNNY     68  40  35 S10       30.26F
JACKSONVILLE   SUNNY     71  40  32 SE9       30.26F
6HR MIN TEMP:  37; 6HR MAX TEMP:  71;

LACON          SUNNY     67  34  29 S8G16     30.28F
6HR MIN TEMP:  34; 6HR MAX TEMP:  67;

LAWRENCEVILLE  SUNNY     71  37  28 E8        30.27F
6HR MIN TEMP:  48; 6HR MAX TEMP:  71;

LITCHFIELD     SUNNY     68  43  40 CALM      30.26F
$$


CITY           SKY/WX    TMP DP  RH WIND       PRES   REMARKS
LINCOLN        SUNNY     72  36  26 SE7       30.26F
6HR MIN TEMP:  38; 6HR MAX TEMP:  72;

MACOMB         SUNNY     69  37  30 SE13G18   30.28F
MATTOON        SUNNY     68  29  23 E5        30.28F
6HR MIN TEMP:  41; 6HR MAX TEMP:  68;

MT CARMEL AP   SUNNY     72  34  25 E8        30.26F
OLNEY-NOBLE AP SUNNY     70  39  32 E6        30.27F
PARIS          SUNNY     68  36  31 E3        30.29F
6HR MIN TEMP:  42; 6HR MAX TEMP:  69;

PEORIA         SUNNY     69  34  27 VRB6G16   30.27F
6HR MIN TEMP:  40; 6HR MAX TEMP:  69;

PONTIAC        SUNNY     68  36  30 E9G16     30.30F
RANTOUL        SUNNY     68  32  26 SE9       30.30F
6HR MIN TEMP:  38; 6HR MAX TEMP:  68;

ROBINSON       SUNNY     72  38  29 E9        30.28F
6HR MIN TEMP:  46; 6HR MAX TEMP:  72;

SPRINGFIELD    SUNNY     70  39  32 SE8       30.27F
6HR MIN TEMP:  39; 6HR MAX TEMP:  71;

TAYLORVILLE    SUNNY     68  39  34 SE8       30.27F
$$

...REGIONAL REPORTS...


CITY           SKY/WX    TMP DP  RH WIND       PRES   REMARKS
CHICAGO O`HARE PTSUNNY   58  35  42 E7        30.33F
KANKAKEE       SUNNY     64  37  36 SE12G21   30.32F
MOLINE         SUNNY     69  31  24 S10G21    30.24F
MOUNT VERNON   SUNNY     72  45  37 E8        30.27F
PITTSFIELD     SUNNY     71  40  32 SE9       30.25F
QUINCY         SUNNY     71  41  33 SE8       30.23F
ROCKFORD       PTSUNNY   63  34  33 S14       30.30F
$$


CITY           SKY/WX    TMP DP  RH WIND       PRES   REMARKS
BURLINGTON     SUNNY     69  39  33 SE13      30.23F
CEDAR RAPIDS   MOSUNNY   67  35  30 S15G23    30.19F
DES MOINES     CLOUDY    73  43  33 S13       30.11F
KIRKSVILLE     SUNNY     74  43  32 SW15G21   30.20F
OTTUMWA        SUNNY     71  42  35 S21       30.17F
ST LOUIS       PTSUNNY   72  41  32 S12       30.25F
$$


CITY           SKY/WX    TMP DP  RH WIND       PRES   REMARKS
TERRE HAUTE    SUNNY     69  36  29 E9        30.28F
EVANSVILLE     SUNNY     73  38  27 NE8       30.24F
INDIANAPOLIS   MOSUNNY   64  39  39 E10G18    30.29F
LAFAYETTE      SUNNY     63  38  39 E18       30.31F
MADISON        PTSUNNY   59  34  39 SE18      30.29F
MILWAUKEE      PTSUNNY   44  33  65 SE14      30.36F
$$




USA.gov is the U.S. government's official web portal to all federal, state and local government web resources and services.